Bedford, MA

11:11 PM EDT on August 31, 2016 (GMT -0400)
Hanscom

Weather History for KBED - May, 2014

Change the Weather History Date:

Wednesday, May 28, 2014

  Actual Average Record
Temperature  
Mean Temperature 44 °F -  
Max Temperature 50 °F 74 °F 95 °F (2016)
Min Temperature 37 °F 48 °F 32 °F (1968)
Degree Days  
Heating Degree Days 20    
Moisture  
Dew Point 46 °F    
Average Humidity 97    
Maximum Humidity 100    
Minimum Humidity 93    
Precipitation  
Precipitation 0.13 in - - ()
Sea Level Pressure  
Sea Level Pressure 30.07 in    
Wind  
Wind Speed 9 mph (NE)    
Max Wind Speed 18 mph    
Max Gust Speed 24 mph    
Visibility 6 miles    
Events Rain    
Averages and records for this station are not official NWS values.
T = Trace of Precipitation, MM = Missing Value Source: NWS Daily Summary

Daily Weather History Graph

Daily Weather History Graph

Search for Another Location

Airport or City:

Trip Planner

Search our weather history database for the weather conditions in past years. The results will help you decide how hot, cold, wet, or windy it might be!

Date:

Astronomy

May. 28, 2014 Rise Set
Actual Time 5:12 AM EDT 8:12 PM EDT
Civil Twilight 4:39 AM EDT 8:46 PM EDT
Nautical Twilight 3:56 AM EDT 9:29 PM EDT
Astronomical Twilight 3:06 AM EDT 10:19 PM EDT
Moon 5:18 AM EDT (5/28) 8:07 PM EDT (5/28)
Length of Visible Light 16h 07m
Length of Day
14h 59m
Waning Crescent, 0% of the Moon is Illuminated
May 28
Waning Crescent
May 28
New
Jun 5
First Quarter
Jun 13
Full
Jun 19
Last Quarter

Hourly Weather History & Observations

Time (EDT) Temp. Windchill Dew Point Humidity Pressure Visibility Wind Dir Wind Speed Gust Speed Precip Events Conditions
12:26 AM 48.0 °F - 46.9 °F 96% 29.94 in 10.0 mi NE 8.1 mph - 0.01 in Rain Light Rain
12:34 AM 46.9 °F - 46.9 °F 100% 29.94 in 6.0 mi NNE 5.8 mph - 0.03 in Rain Rain
12:41 AM 46.9 °F - 46.9 °F 100% 29.94 in 8.0 mi NE 6.9 mph - 0.03 in Rain Light Rain
12:56 AM 46.9 °F - 46.9 °F 100% 29.97 in 10.0 mi NE 6.9 mph - 0.03 in   Overcast
1:08 AM 46.9 °F - 46.9 °F 100% 29.92 in 10.0 mi ENE 8.1 mph - 0.01 in Rain Light Rain
1:17 AM 46.9 °F - 46.9 °F 100% 29.92 in 10.0 mi NE 6.9 mph - 0.01 in Rain Light Rain
1:56 AM 48.0 °F - 46.9 °F 96% 29.98 in 9.0 mi NNE 6.9 mph - 0.01 in   Overcast
2:13 AM 48.0 °F - 46.9 °F 96% 29.94 in 8.0 mi NNE 8.1 mph - N/A   Overcast
2:44 AM 46.9 °F - 46.9 °F 100% 29.95 in 2.5 mi North 8.1 mph - N/A   Overcast
2:56 AM 46.9 °F - 46.9 °F 100% 29.99 in 2.5 mi North 6.9 mph - N/A   Overcast
3:35 AM 46.9 °F - 46.9 °F 100% 29.91 in 3.0 mi NE 10.4 mph - 0.04 in Rain Rain
3:56 AM 46.9 °F - 46.9 °F 100% 29.96 in 5.0 mi NNE 8.1 mph - 0.05 in Rain Light Rain
4:56 AM 48.2 °F - 46.4 °F 93% 29.93 in 10.0 mi NNE 6.9 mph - N/A   Overcast
5:56 AM 48.0 °F - 48.0 °F 100% 29.98 in 9.0 mi ENE 12.7 mph - 0.00 in Rain Light Rain
6:53 AM 48.2 °F - 48.2 °F 100% 29.95 in 2.0 mi ENE 9.2 mph - 0.03 in   Overcast
6:56 AM 48.0 °F - 48.0 °F 100% 30.00 in 2.0 mi NE 8.1 mph - 0.03 in   Overcast
7:03 AM 48.0 °F - 48.0 °F 100% 29.96 in 5.0 mi ENE 8.1 mph - N/A   Overcast
7:56 AM 48.9 °F - 48.9 °F 100% 30.01 in 2.5 mi NE 8.1 mph - N/A   Overcast
8:56 AM 48.2 °F - 48.2 °F 100% 30.00 in 1.0 mi NE 9.2 mph - N/A Rain Light Rain
9:45 AM 48.9 °F - 48.0 °F 97% 30.01 in 3.0 mi NE 10.4 mph - 0.00 in   Overcast
9:56 AM 48.9 °F - 48.0 °F 97% 30.06 in 3.0 mi NE 10.4 mph - 0.00 in   Overcast
10:03 AM 48.9 °F - 48.9 °F 100% 30.02 in 10.0 mi NE 12.7 mph - N/A   Overcast
10:56 AM 48.9 °F - 48.0 °F 97% 30.08 in 10.0 mi NE 12.7 mph - N/A   Overcast
11:08 AM 48.9 °F - 46.9 °F 93% 30.05 in 9.0 mi ENE 10.4 mph - N/A   Overcast
11:56 AM 50.0 °F - 48.9 °F 96% 30.09 in 5.0 mi ENE 11.5 mph - 0.01 in   Overcast
12:04 PM 48.9 °F - 48.0 °F 97% 30.06 in 4.0 mi NE 16.1 mph 23.0 mph 0.00 in Rain Light Rain
12:51 PM 48.2 °F - 46.4 °F 93% 30.08 in 3.0 mi NE 12.7 mph - 0.00 in   Overcast
12:56 PM 46.9 °F - 46.9 °F 100% 30.12 in 3.0 mi NE 16.1 mph 21.9 mph 0.00 in   Overcast
1:56 PM 46.9 °F - 46.0 °F 97% 30.14 in 10.0 mi NE 11.5 mph - N/A   Overcast
2:56 PM 46.9 °F - 45.0 °F 93% 30.17 in 3.0 mi NE 18.4 mph 24.2 mph N/A   Overcast
3:56 PM 46.9 °F - 45.0 °F 93% 30.18 in 3.0 mi NE 13.8 mph - N/A   Overcast
4:03 PM 46.9 °F - 45.0 °F 93% 30.14 in 5.0 mi NE 12.7 mph - N/A   Overcast
4:16 PM 46.0 °F 40.2 °F 45.0 °F 96% 30.14 in 3.0 mi NE 12.7 mph - 0.00 in   Overcast
4:56 PM 46.4 °F 40.4 °F 44.6 °F 93% 30.15 in 3.0 mi NE 13.8 mph - N/A   Overcast
5:27 PM 46.0 °F 40.6 °F 45.0 °F 96% 30.15 in 8.0 mi NE 11.5 mph - N/A   Overcast
5:34 PM 46.0 °F 40.6 °F 45.0 °F 96% 30.15 in 5.0 mi NE 11.5 mph - N/A   Overcast
5:56 PM 46.0 °F 41.0 °F 45.0 °F 96% 30.20 in 5.0 mi NE 10.4 mph - N/A   Overcast
6:56 PM 46.9 °F - 45.0 °F 93% 30.20 in 5.0 mi NE 9.2 mph - N/A   Overcast
7:03 PM 46.9 °F - 45.0 °F 93% 30.16 in 10.0 mi NE 9.2 mph - N/A   Overcast
7:56 PM 46.0 °F 41.9 °F 45.0 °F 96% 30.22 in 6.0 mi NNE 8.1 mph - N/A   Overcast
8:05 PM 46.0 °F 41.0 °F 45.0 °F 96% 30.18 in 4.0 mi NE 10.4 mph - N/A   Overcast
8:56 PM 46.0 °F 41.4 °F 45.0 °F 96% 30.24 in 7.0 mi NE 9.2 mph - N/A   Overcast
9:07 PM 45.0 °F 41.2 °F 44.1 °F 97% 30.20 in 10.0 mi NE 6.9 mph - N/A   Overcast
9:32 PM 44.1 °F 41.5 °F 43.0 °F 96% 30.21 in 10.0 mi North 4.6 mph - N/A   Mostly Cloudy
9:36 PM 44.1 °F 41.5 °F 43.0 °F 96% 30.21 in 10.0 mi North 4.6 mph - N/A   Scattered Clouds
9:56 PM 43.0 °F 39.5 °F 42.1 °F 97% 30.26 in 10.0 mi North 5.8 mph - N/A   Clear
10:56 PM 39.2 °F 37.0 °F 39.2 °F 100% 30.21 in 10.0 mi NW 3.5 mph - N/A   Clear
11:56 PM 37.9 °F 35.5 °F 37.9 °F 100% 30.25 in 10.0 mi NW 3.5 mph - N/A   Clear